[[{"header":{"parameterUnit":"m.s-1","parameterCategory":2,"la1":30.2991,"la2":30.254,"lo1":-89.0895,"lo2":-89.0444,"dy":0.0017,"dx":0.0017,"nx":28,"ny":28,"refTime":"2025-07-07T21:00:00:Z","depth":"0","parameterNumber":2,"parameterNumberName":"U-component_of_CURRENTS"},"data":[0,0,0,0,0,0,0,0,0,0,0,0,0,0,0,0,0,0,0,0,0,0,0,0,0,0,0,0,0,0,0,0,0,0,0,0,0,0,0,0,0,0,0,0,0,0,0,0,0,0,0,0,0,0,0,0,0,0,0.4031,0.4032,0,0.4113,0.4114,0.4114,0.4101,0.41,0.4099,0.4098,0.4174,0.4177,0.418,0,0,0,0,0,0,0,0,0,0,0,0,0,0.3877,0.388,0.4031,0.4032,0.4034,0.4113,0.4114,0.4114,0.4101,0.41,0.4099,0.4097,0.4173,0.4176,0.418,0,0,0,0,0,0,0,0,0,0,0,0,0,0.3945,0.388,0.4031,0.404,0.4042,0.4113,0.4114,0.4114,0.4101,0.41,0.4098,0.4097,0.4172,0.4176,0.418,0.4236,0,0,0.4194,0.4196,0,0,0,0,0,0,0,0,0.3941,0.395,0.4037,0.404,0.4042,0.4099,0.4088,0.4157,0.4101,0.4074,0.4098,0.4096,0.4153,0.4159,0.417,0.424,0.4243,0.4194,0.4197,0.4199,0.42,0,0,0,0,0,0,0,0.3937,0.3947,0.4058,0.4039,0.4042,0.4046,0.4053,0.41,0.4116,0.4076,0.4076,0.4094,0.4153,0.4166,0.4172,0.4244,0.4194,0.4198,0.4201,0.4202,0.4439,0.4442,0,0,0,0,0,0,0.3938,0.3943,0.4056,0.4061,0.3993,0.405,0.4058,0.4079,0.4116,0.4122,0.4095,0.4093,0.4159,0.4167,0.4175,0.4302,0.4199,0.4203,0.4205,0.4435,0.444,0.4444,0,0,0,0,0,0,0.3934,0.3947,0.4053,0.4007,0.4021,0.4055,0.4078,0.4081,0.4099,0.4132,0.4136,0.4111,0.4158,0.4169,0.4231,0.4303,0.4205,0.4209,0.4431,0.4437,0.4442,0.452,0,0,0,0,0,0,0.393,0.3946,0.3962,0.4008,0.4024,0.4119,0.408,0.4084,0.4115,0.4113,0.4147,0.4152,0.4158,0.4224,0.4235,0.4307,0.4212,0.4426,0.4434,0.444,0.4513,0.4528,0.454,0,0,0,0,0,0.3924,0.3963,0.3962,0.3976,0.4045,0.4122,0.4131,0.4145,0.4117,0.4149,0.4161,0.4151,0.4276,0.423,0.4242,0.4317,0.4423,0.4431,0.4439,0.4507,0.4525,0.454,0,0,0,0,0,0,0.3911,0.3967,0.3967,0.4021,0.4075,0.4121,0.4151,0.4155,0.4189,0.4177,0.4186,0.4195,0.4285,0.4292,0.4241,0.441,0.4354,0.4365,0.4402,0.4419,0.4432,0.4419,0.4216,0,0,0,0,0,0.3916,0.3954,0.4011,0.4057,0.4081,0.4113,0.4142,0.4156,0.4193,0.4204,0.4229,0.4267,0.4332,0.4361,0.4414,0.4496,0.4536,0.4558,0.4572,0.4583,0.4585,0.4747,0.4775,0.4471,0.4471,0.447,0,0,0.3916,0.396,0.3975,0.4056,0.4087,0.4155,0.4126,0.4182,0.4232,0.4211,0.4279,0.4316,0.4365,0.4462,0.4504,0.4472,0.4688,0.4594,0.4603,0.4598,0.4759,0.4788,0.4815,0.4476,0.4475,0.4474,0,0,0.3985,0.3982,0.4056,0.4097,0.4168,0.4187,0.4207,0.4264,0.4277,0.435,0.436,0.4429,0.4511,0.4569,0.4606,0.4729,0.4758,0.4761,0.4817,0.4976,0.5002,0.5025,0.5092,0.5121,0.4765,0.4765,0.4765,0,0.3983,0.4095,0.409,0.4178,0.4222,0.4206,0.4299,0.4313,0.4382,0.4435,0.4382,0.4567,0.4566,0.4734,0.4741,0.476,0.483,0.4744,0.4993,0.5017,0.504,0.5103,0.5134,0.477,0.4769,0.4769,0.4768,0,0.4108,0.4201,0.4245,0.434,0.4376,0.445,0.4468,0.4506,0.4504,0.4552,0.4698,0.4715,0.4831,0.4848,0.4804,0.4993,0.4982,0.4993,0.4945,0.5075,0.5133,0.5164,0.4776,0.4775,0.4773,0.4772,0,0,0.4097,0.4302,0.4315,0.4393,0.4468,0.4503,0.458,0.4685,0.4738,0.4806,0.493,0.5005,0.5023,0.5063,0.5068,0.5154,0.5309,0.512,0.5126,0.5171,0.5624,0.5516,0.5538,0.5389,0.5396,0.5401,0.559,0,0.4209,0.4435,0.4482,0.463,0.4737,0.4728,0.4788,0.4853,0.4893,0.4988,0.5063,0.5166,0.5109,0.5147,0.5245,0.5292,0.54,0.5253,0.5502,0.5507,0.5386,0.5574,0.5282,0.542,0.562,0.5625,0.5629,0,0.4322,0.4464,0.4672,0.481,0.4838,0.4882,0.4958,0.5015,0.5133,0.5172,0.532,0.5359,0.5494,0.5402,0.5629,0.5549,0.5589,0.5618,0.5628,0.5519,0.5459,0.533,0.5468,0.532,0.5676,0.5672,0.5668,0,0.4356,0.4574,0.4747,0.479,0.4933,0.4974,0.5008,0.5096,0.5131,0.5296,0.5359,0.5564,0.5632,0.5775,0.5799,0.5743,0.6025,0.5972,0.594,0.5929,0.572,0.5681,0.5729,0.6176,0.6175,0.6175,0.6174,0,0.4475,0.4599,0.4763,0.4842,0.4938,0.5004,0.5078,0.5138,0.5233,0.5321,0.545,0.5564,0.573,0.5885,0.5915,0.6025,0.6158,0.5984,0.6007,0.5734,0.5696,0.5585,0.5538,0.6182,0.618,0.6179,0.6178,0,0.4517,0.4663,0.4817,0.4955,0.4976,0.5015,0.5058,0.5112,0.5214,0.5333,0.5391,0.5599,0.5801,0.5951,0.616,0.6151,0.6097,0.6279,0.5893,0.5866,0.5626,0.5593,0.5519,0.536,0.6263,0.6262,0.6262,0,0.4603,0.4703,0.4828,0.4873,0.4931,0.4988,0.5019,0.5089,0.5144,0.5352,0.5421,0.5653,0.5786,0.6054,0.6104,0.6217,0.6073,0.6013,0.5844,0.5609,0.5593,0.5402,0.5259,0.5588,0.5582,0.5577,0.5572,0,0.4696,0.4709,0.4805,0.4882,0.4919,0.4943,0.5001,0.5017,0.5132,0.5225,0.5371,0.5487,0.5737,0.5727,0.5893,0.592,0.5696,0.5908,0.5806,0.5195,0.4855,0.471,0.5414,0.5527,0.5531,0.5534,0.5537,0.5539,0.4702,0.4741,0.4822,0.4859,0.489,0.4872,0.4815,0.4892,0.4916,0.4967,0.5212,0.5241,0.5374,0.5531,0.555,0.5366,0.54,0.5182,0.52,0.5057,0.4781,0.5343,0.5397,0.54,0.5403,0.5406,0.5409,0,0.469,0.4735,0.4794,0.4792,0.4739,0.4781,0.4768,0.466,0.4611,0.4725,0.4784,0.4804,0.4811,0.4886,0.485,0.4689,0.4471,0.457,0.4231,0.4157,0.4784,0.4628,0.4345,0.4345,0.4345,0.4345,0.4345,0.4345,0.4704,0.4732,0.4735,0.4626,0.4593,0.4416,0.4348,0.4227,0.4202,0.4087,0.4023,0.413,0.4382,0.4502,0.4338,0.422,0.392,0.3722,0.3796,0.4229,0.4285,0.4339,0.4179,0.3807,0.3807,0.2913,0.2907,0.2902]},{"header":{"parameterUnit":"m.s-1","parameterCategory":2,"la1":30.2991,"la2":30.254,"lo1":-89.0895,"lo2":-89.0444,"dy":0.0017,"dx":0.0017,"nx":28,"ny":28,"refTime":"2025-07-07T21:00:00:Z","depth":"0","parameterNumber":3,"parameterNumberName":"V-component_of_CURRENTS"},"data":[0,0,0,0,0,0,0,0,0,0,0,0,0,0,0,0,0,0,0,0,0,0,0,0,0,0,0,0,0,0,0,0,0,0,0,0,0,0,0,0,0,0,0,0,0,0,0,0,0,0,0,0,0,0,0,0,0,0,0.0026,0.0025,0,-0.0035,-0.0036,-0.0036,-0.0077,-0.0078,-0.0078,-0.0079,-0.0165,-0.0167,-0.0169,0,0,0,0,0,0,0,0,0,0,0,0,0,0.0083,0.0082,0.0026,0.0025,0.0024,-0.0035,-0.0036,-0.0036,-0.0077,-0.0078,-0.0078,-0.0079,-0.0164,-0.0166,-0.0169,0,0,0,0,0,0,0,0,0,0,0,0,0,0.0045,0.0082,0.0026,-0.0005,-0.0008,-0.0035,-0.0036,-0.0036,-0.0077,-0.0078,-0.0079,-0.0079,-0.0164,-0.0166,-0.0169,-0.0173,0,0,-0.0178,-0.0179,0,0,0,0,0,0,0,0,0.0047,0.0043,0.0001,-0.0002,-0.0006,-0.0051,-0.0047,-0.0084,-0.0077,-0.0049,-0.0079,-0.008,-0.013,-0.0135,-0.0143,-0.0177,-0.0181,-0.0178,-0.018,-0.0181,-0.0182,0,0,0,0,0,0,0,0.005,0.0046,0.0004,-0.0,-0.0005,-0.0024,-0.003,-0.0054,-0.0084,-0.0052,-0.0055,-0.0064,-0.0132,-0.014,-0.0145,-0.0182,-0.0178,-0.018,-0.0182,-0.0183,-0.0231,-0.023,0,0,0,0,0,0,0.0056,0.0048,0.0006,0.0002,0.0018,-0.0024,-0.0031,-0.0034,-0.0083,-0.0092,-0.0064,-0.0066,-0.0135,-0.0142,-0.0148,-0.0139,-0.0181,-0.0183,-0.0185,-0.0231,-0.0231,-0.023,0,0,0,0,0,0,0.0058,0.0053,0.0008,0.0022,0.0014,-0.0025,-0.0029,-0.0035,-0.0046,-0.0093,-0.0101,-0.0068,-0.0135,-0.0144,-0.0158,-0.0144,-0.0185,-0.0187,-0.0232,-0.0231,-0.023,-0.0132,0,0,0,0,0,0,0.006,0.0055,0.0055,0.0023,0.0014,-0.0,-0.0028,-0.0036,-0.0052,-0.0055,-0.0099,-0.0108,-0.0137,-0.0153,-0.0161,-0.0148,-0.0189,-0.0232,-0.0231,-0.0231,-0.0136,-0.0128,-0.0121,0,0,0,0,0,0.0062,0.0069,0.0056,0.005,0.0016,0.0,-0.0005,-0.0035,-0.0051,-0.0048,-0.0073,-0.0107,-0.0154,-0.0155,-0.0164,-0.0152,-0.0233,-0.0232,-0.0231,-0.0139,-0.0129,-0.0122,0,0,0,0,0,0,0.0097,0.0064,0.0049,0.0046,0.0027,-0.0007,-0.0009,-0.0031,-0.0048,-0.0052,-0.0095,-0.0105,-0.0116,-0.0148,-0.0147,-0.0165,-0.0202,-0.0202,-0.0129,-0.0121,-0.0114,-0.0069,-0.0192,0,0,0,0,0,0.0104,0.0101,0.0067,0.0068,0.0059,0.0026,0.0015,-0.0004,-0.0027,-0.0036,-0.0065,-0.0097,-0.0118,-0.0129,-0.0158,-0.016,-0.0166,-0.0162,-0.0155,-0.0149,-0.0119,-0.0092,-0.0079,-0.0227,-0.0227,-0.0227,0,0,0.012,0.01,0.0099,0.0075,0.0057,0.0069,0.0018,0.0008,0.0026,-0.0042,-0.0029,-0.0075,-0.0116,-0.0119,-0.0127,-0.0142,-0.0117,-0.0148,-0.0141,-0.0115,-0.009,-0.0075,-0.0062,-0.0226,-0.0227,-0.0227,0,0,0.0149,0.0131,0.0135,0.0128,0.0104,0.0096,0.0095,0.0064,0.0057,0.0056,0.0013,-0.0007,-0.0051,-0.006,-0.0075,-0.0044,-0.0083,-0.0078,0.0003,0.0028,0.0042,0.0054,0.0042,0.0052,-0.0069,-0.0069,-0.0069,0,0.0168,0.0176,0.0137,0.0146,0.0163,0.0116,0.0149,0.0135,0.0106,0.0117,0.0072,0.0043,-0.001,0.002,0.0013,-0.0022,-0.0032,-0.0024,0.0042,0.0054,0.0064,0.0049,0.006,-0.0064,-0.0065,-0.0065,-0.0066,0,0.0203,0.0216,0.0223,0.0232,0.0244,0.0263,0.025,0.0255,0.0236,0.0222,0.0231,0.0171,0.0163,0.0124,0.007,0.0114,0.0073,0.0047,0.003,0.0086,0.0065,0.0074,-0.0057,-0.0059,-0.006,-0.0061,0,0,0.0242,0.0249,0.0254,0.0297,0.03,0.0329,0.0358,0.0388,0.0434,0.0383,0.045,0.0373,0.0335,0.0316,0.0251,0.0251,0.028,0.0176,0.0175,0.0182,0.0312,0.0248,0.025,0.0266,0.0269,0.0271,0.0259,0,0.0291,0.0351,0.0335,0.0429,0.0479,0.0467,0.0515,0.0533,0.0531,0.0576,0.0523,0.0543,0.0413,0.0414,0.0394,0.0322,0.0312,0.0285,0.0242,0.024,0.0193,0.0263,0.023,0.0215,0.0267,0.0269,0.027,0,0.0338,0.0386,0.048,0.057,0.059,0.0636,0.074,0.077,0.0796,0.0794,0.0797,0.0748,0.074,0.0626,0.0556,0.0541,0.0434,0.0364,0.0362,0.0285,0.0195,0.017,0.0229,-0.0002,0.0283,0.0282,0.0281,0,0.0435,0.0496,0.0596,0.0624,0.0703,0.0755,0.0798,0.0839,0.0898,0.0946,0.1003,0.0962,0.098,0.0861,0.0676,0.0627,0.0598,0.0522,0.0366,0.0358,0.0317,0.0302,0.0171,0.0487,0.0487,0.0487,0.0487,0,0.0519,0.0603,0.065,0.0719,0.0849,0.0864,0.0993,0.102,0.1092,0.1213,0.1129,0.1226,0.1041,0.0983,0.078,0.0611,0.0683,0.0408,0.0372,0.0343,0.0331,0.0115,-0.0019,0.0487,0.0487,0.0487,0.0487,0,0.0624,0.0645,0.0769,0.0863,0.0901,0.0998,0.1112,0.1203,0.1253,0.142,0.1453,0.145,0.1385,0.1168,0.0995,0.0771,0.0458,0.051,0.0464,0.0423,0.0039,-0.0087,-0.0254,-0.0344,0.035,0.0348,0.0347,0,0.0688,0.0765,0.0883,0.0954,0.1001,0.1126,0.1216,0.1282,0.1396,0.1574,0.1684,0.1672,0.1703,0.1405,0.1021,0.0687,0.0447,0.0401,0.0299,0.004,-0.0127,-0.0232,-0.0303,0.0266,0.0265,0.0263,0.0262,0,0.0827,0.0855,0.0943,0.1081,0.1187,0.1323,0.1462,0.1581,0.1709,0.1864,0.2066,0.2111,0.1833,0.1493,0.0999,0.0744,0.0221,0.036,0.013,-0.0161,-0.0316,-0.0427,0.0217,0.025,0.0251,0.0252,0.0253,0.0253,0.0916,0.0981,0.1073,0.1205,0.1334,0.1514,0.1655,0.1828,0.2049,0.2313,0.2342,0.2436,0.1896,0.1235,0.0865,0.0117,0.0134,-0.0134,-0.0254,-0.0328,-0.0449,0.0147,0.0113,0.0113,0.0114,0.0114,0.0114,0,0.0998,0.1064,0.1196,0.1348,0.1504,0.1561,0.1818,0.198,0.2269,0.2481,0.2657,0.2411,0.1761,0.1078,0.0088,-0.0413,-0.0585,-0.0688,-0.0844,-0.0875,-0.0306,-0.0345,-0.0524,-0.0524,-0.0524,-0.0524,-0.0523,-0.0523,0.1048,0.1154,0.1207,0.1457,0.1586,0.1822,0.1985,0.2233,0.2422,0.2666,0.2695,0.2701,0.2126,0.0417,-0.0715,-0.0957,-0.1297,-0.1412,-0.1535,-0.1174,-0.1131,-0.1091,-0.1158,-0.1505,-0.1506,-0.2051,-0.2057,-0.2062]}],[{"header":{"parameterUnit":"m.s-1","parameterCategory":2,"la1":30.2991,"la2":30.254,"lo1":-89.0895,"lo2":-89.0444,"dy":0.0017,"dx":0.0017,"nx":28,"ny":28,"refTime":"2025-07-07T21:00:00:Z","depth":"2","parameterNumber":2,"parameterNumberName":"U-component_of_CURRENTS"},"data":[0,0,0,0,0,0,0,0,0,0,0,0,0,0,0,0,0,0,0,0,0,0,0,0,0,0,0,0,0,0,0,0,0,0,0,0,0,0,0,0,0,0,0,0,0,0,0,0,0,0,0,0,0,0,0,0,0,0,0.3184,0.3185,0,0.3256,0.3257,0.3257,0.3259,0.3258,0.3258,0.3258,0.3339,0.3341,0.3343,0,0,0,0,0,0,0,0,0,0,0,0,0,0.3073,0.3075,0.3184,0.3186,0.3187,0.3256,0.3257,0.3257,0.3259,0.3258,0.3258,0.3257,0.3338,0.3341,0.3344,0,0,0,0,0,0,0,0,0,0,0,0,0,0.3125,0.3075,0.3184,0.32,0.3203,0.3256,0.3257,0.3257,0.3259,0.3258,0.3258,0.3257,0.3337,0.334,0.3344,0.3378,0,0,0.3355,0.3357,0,0,0,0,0,0,0,0,0.3122,0.3129,0.3197,0.3199,0.3203,0.3253,0.3248,0.33,0.3259,0.3231,0.3258,0.3257,0.3315,0.3321,0.3327,0.3382,0.3385,0.3356,0.3358,0.336,0.3361,0,0,0,0,0,0,0,0.3119,0.3126,0.3207,0.3198,0.3202,0.3214,0.322,0.3257,0.3271,0.3234,0.3235,0.3253,0.3316,0.3323,0.3329,0.3386,0.3356,0.3359,0.3361,0.3363,0.3454,0.3454,0,0,0,0,0,0,0.3121,0.3122,0.3205,0.3209,0.3167,0.3216,0.3223,0.3233,0.327,0.3277,0.3254,0.3253,0.3317,0.3324,0.3332,0.3461,0.336,0.3363,0.3365,0.3454,0.3454,0.3454,0,0,0,0,0,0,0.3119,0.3128,0.3202,0.3173,0.3184,0.3219,0.323,0.3234,0.3273,0.3286,0.3292,0.3292,0.3317,0.3327,0.3377,0.346,0.3365,0.3368,0.3453,0.3454,0.3454,0.3663,0,0,0,0,0,0,0.3115,0.3126,0.3135,0.3173,0.3186,0.3274,0.3232,0.3236,0.3286,0.3286,0.3321,0.3326,0.3317,0.3372,0.3381,0.3464,0.3371,0.3453,0.3454,0.3454,0.3656,0.367,0.3683,0,0,0,0,0,0.311,0.3126,0.3135,0.3145,0.3196,0.3277,0.3286,0.3304,0.3288,0.333,0.3327,0.3326,0.3379,0.3376,0.3387,0.3473,0.3453,0.3453,0.3454,0.365,0.3668,0.3683,0,0,0,0,0,0,0.3087,0.313,0.3139,0.3168,0.3239,0.3281,0.331,0.3329,0.3359,0.3357,0.335,0.3356,0.3434,0.3399,0.3396,0.3483,0.3409,0.3411,0.3554,0.357,0.3584,0.3598,0.3374,0,0,0,0,0,0.3087,0.3111,0.3171,0.3206,0.3235,0.328,0.3312,0.3343,0.3375,0.3389,0.3399,0.34,0.3438,0.3462,0.3477,0.354,0.3555,0.3585,0.3598,0.3611,0.3621,0.3755,0.3785,0.3455,0.3455,0.3455,0,0,0.3094,0.3119,0.3136,0.3204,0.3244,0.3305,0.3298,0.3375,0.3428,0.3395,0.3446,0.3466,0.3462,0.3532,0.3561,0.3523,0.3701,0.3611,0.3624,0.3626,0.3759,0.3793,0.3823,0.3456,0.3456,0.3456,0,0,0.3107,0.314,0.3157,0.3236,0.332,0.3348,0.3383,0.3446,0.3475,0.3542,0.3529,0.3594,0.3618,0.3654,0.367,0.376,0.3776,0.3752,0.3848,0.3981,0.4012,0.4039,0.4078,0.4107,0.3755,0.3755,0.3755,0,0.3109,0.3196,0.3186,0.3248,0.3337,0.3371,0.3461,0.3487,0.3558,0.3607,0.3575,0.368,0.3681,0.3811,0.3823,0.3807,0.3846,0.3809,0.4011,0.4038,0.4062,0.4095,0.4125,0.3765,0.3764,0.3763,0.3762,0,0.3145,0.3266,0.3305,0.3385,0.3416,0.3567,0.3586,0.3641,0.367,0.371,0.3845,0.3863,0.3932,0.3945,0.3912,0.4088,0.4046,0.4032,0.3997,0.4111,0.4134,0.4162,0.378,0.3776,0.3773,0.377,0,0,0.3107,0.3307,0.3343,0.3437,0.3571,0.3589,0.3672,0.379,0.3857,0.3924,0.4047,0.412,0.415,0.4165,0.4174,0.4267,0.4458,0.4222,0.4225,0.4306,0.471,0.4531,0.4543,0.4514,0.452,0.4525,0.465,0,0.3216,0.3379,0.3445,0.3622,0.3725,0.3807,0.3855,0.3912,0.399,0.4087,0.4173,0.4273,0.4229,0.4297,0.4396,0.4447,0.4543,0.4421,0.4543,0.4545,0.4416,0.4574,0.4226,0.4297,0.4677,0.4681,0.4685,0,0.3315,0.3396,0.3584,0.3785,0.3824,0.3906,0.4027,0.4076,0.4199,0.4272,0.4418,0.4458,0.4614,0.455,0.4751,0.4685,0.4712,0.4735,0.4742,0.4524,0.4421,0.4242,0.4332,0.473,0.4726,0.4723,0.472,0,0.3302,0.3563,0.3717,0.3801,0.3926,0.4021,0.4087,0.4163,0.4201,0.4413,0.45,0.4683,0.4796,0.4893,0.4913,0.4873,0.5099,0.505,0.4915,0.4899,0.4592,0.4539,0.5214,0.5213,0.5213,0.5213,0.5212,0,0.3477,0.3611,0.3752,0.3819,0.3945,0.4004,0.4139,0.4238,0.4359,0.443,0.4596,0.4717,0.4901,0.5015,0.501,0.504,0.5195,0.4964,0.4954,0.4642,0.4594,0.4948,0.4915,0.5217,0.5216,0.5216,0.5215,0,0.3473,0.3626,0.3808,0.3953,0.3957,0.4041,0.4153,0.426,0.4369,0.449,0.4565,0.4797,0.4969,0.5069,0.5236,0.5162,0.5197,0.5161,0.4731,0.4667,0.4874,0.4851,0.5048,0.5043,0.504,0.5036,0.5034,0,0.3549,0.3607,0.378,0.387,0.3982,0.4072,0.4131,0.4255,0.4334,0.4505,0.4569,0.4801,0.4895,0.5055,0.503,0.5029,0.5141,0.4689,0.4543,0.4905,0.4876,0.4857,0.4839,0.4208,0.4199,0.4192,0.4186,0,0.3585,0.365,0.3716,0.3827,0.399,0.4067,0.417,0.4179,0.4295,0.4375,0.4455,0.4534,0.4733,0.46,0.4647,0.4591,0.4657,0.4531,0.5112,0.4284,0.4119,0.4087,0.4097,0.4119,0.4125,0.413,0.4134,0.4136,0.36,0.3658,0.3701,0.38,0.3955,0.3991,0.3969,0.4047,0.4017,0.3992,0.4185,0.4169,0.4267,0.4132,0.4023,0.3981,0.4276,0.4099,0.4121,0.4152,0.4013,0.3849,0.3767,0.3772,0.3775,0.3779,0.3782,0,0.3545,0.3551,0.3641,0.3705,0.3753,0.3896,0.389,0.3778,0.3662,0.3746,0.3708,0.3414,0.3353,0.3467,0.329,0.3283,0.3252,0.3169,0.3106,0.3177,0.3239,0.3051,0.2552,0.2547,0.2543,0.2539,0,0,0.3546,0.3496,0.3464,0.3418,0.3484,0.3426,0.3417,0.3286,0.3231,0.3039,0.2982,0.3165,0.3345,0.287,0.2838,0.2668,0.2894,0.2576,0.3576,0.3573,0.3629,0.3803,0.3596,0,0,0,0,0]},{"header":{"parameterUnit":"m.s-1","parameterCategory":2,"la1":30.2991,"la2":30.254,"lo1":-89.0895,"lo2":-89.0444,"dy":0.0017,"dx":0.0017,"nx":28,"ny":28,"refTime":"2025-07-07T21:00:00:Z","depth":"2","parameterNumber":3,"parameterNumberName":"V-component_of_CURRENTS"},"data":[0,0,0,0,0,0,0,0,0,0,0,0,0,0,0,0,0,0,0,0,0,0,0,0,0,0,0,0,0,0,0,0,0,0,0,0,0,0,0,0,0,0,0,0,0,0,0,0,0,0,0,0,0,0,0,0,0,0,-0.0081,-0.0082,0,-0.0131,-0.0132,-0.0132,-0.0169,-0.0169,-0.017,-0.017,-0.025,-0.0251,-0.0253,0,0,0,0,0,0,0,0,0,0,0,0,0,-0.0045,-0.0045,-0.0081,-0.0082,-0.0083,-0.0131,-0.0132,-0.0132,-0.0169,-0.0169,-0.017,-0.0171,-0.0249,-0.0251,-0.0253,0,0,0,0,0,0,0,0,0,0,0,0,0,-0.0072,-0.0045,-0.0081,-0.0108,-0.0112,-0.0131,-0.0132,-0.0132,-0.0169,-0.0169,-0.017,-0.0171,-0.0248,-0.0251,-0.0253,-0.0254,0,0,-0.0261,-0.0262,0,0,0,0,0,0,0,0,-0.007,-0.0073,-0.0104,-0.0107,-0.011,-0.0146,-0.0148,-0.0175,-0.0169,-0.0145,-0.017,-0.0171,-0.0219,-0.0224,-0.0228,-0.0257,-0.0261,-0.0261,-0.0263,-0.0264,-0.0264,0,0,0,0,0,0,0,-0.0068,-0.0071,-0.0099,-0.0104,-0.0108,-0.0128,-0.0132,-0.0153,-0.0176,-0.0147,-0.015,-0.0159,-0.022,-0.0225,-0.023,-0.0262,-0.0261,-0.0263,-0.0265,-0.0266,-0.0305,-0.0305,0,0,0,0,0,0,-0.0064,-0.0069,-0.0098,-0.0101,-0.0094,-0.0128,-0.0132,-0.0132,-0.0175,-0.0183,-0.0158,-0.016,-0.0221,-0.0227,-0.0233,-0.0228,-0.0264,-0.0266,-0.0267,-0.0306,-0.0305,-0.0305,0,0,0,0,0,0,-0.0063,-0.0066,-0.0096,-0.0088,-0.0094,-0.0128,-0.0127,-0.0133,-0.0143,-0.0184,-0.0192,-0.0163,-0.0222,-0.023,-0.024,-0.0232,-0.0267,-0.0269,-0.0306,-0.0306,-0.0305,-0.0223,0,0,0,0,0,0,-0.0061,-0.0065,-0.0064,-0.0088,-0.0094,-0.0098,-0.0127,-0.0134,-0.0147,-0.0151,-0.019,-0.0198,-0.0223,-0.0236,-0.0243,-0.0236,-0.0271,-0.0307,-0.0306,-0.0305,-0.0226,-0.022,-0.0214,0,0,0,0,0,-0.006,-0.0049,-0.0063,-0.0067,-0.0091,-0.0097,-0.0101,-0.0127,-0.0147,-0.0141,-0.0165,-0.0197,-0.0237,-0.0237,-0.0245,-0.0239,-0.0307,-0.0306,-0.0305,-0.0229,-0.0221,-0.0214,0,0,0,0,0,0,-0.003,-0.0053,-0.0069,-0.0066,-0.0079,-0.0104,-0.0104,-0.0124,-0.0139,-0.0144,-0.0185,-0.0193,-0.0205,-0.0231,-0.0231,-0.025,-0.028,-0.0281,-0.022,-0.0213,-0.0207,-0.0168,-0.0273,0,0,0,0,0,-0.0024,-0.0021,-0.0048,-0.0042,-0.0049,-0.0077,-0.0086,-0.0101,-0.0119,-0.0127,-0.0153,-0.0183,-0.0206,-0.0215,-0.0241,-0.0242,-0.0265,-0.0247,-0.0241,-0.0235,-0.021,-0.0221,-0.0213,-0.0302,-0.0302,-0.0302,0,0,-0.0011,-0.0023,-0.0022,-0.0036,-0.005,-0.0033,-0.0083,-0.0087,-0.0069,-0.0133,-0.0119,-0.0164,-0.0204,-0.0207,-0.0215,-0.0226,-0.0228,-0.0234,-0.0229,-0.0206,-0.0219,-0.021,-0.0203,-0.0301,-0.0301,-0.0301,0,0,0.0024,0.0006,0.002,0.0017,0.0,-0.0005,-0.0005,-0.0028,-0.0038,-0.0035,-0.008,-0.0105,-0.014,-0.0157,-0.0174,-0.0148,-0.02,-0.0176,-0.0105,-0.0117,-0.0109,-0.0102,-0.0143,-0.014,-0.0167,-0.0166,-0.0166,0,0.0041,0.0052,0.0025,0.0043,0.0056,0.0014,0.0048,0.0037,0.0016,0.0017,-0.0018,-0.0061,-0.0107,-0.01,-0.01,-0.0131,-0.0159,-0.0129,-0.0106,-0.01,-0.0095,-0.0138,-0.0136,-0.0162,-0.0163,-0.0163,-0.0164,0,0.0088,0.0098,0.0108,0.0126,0.0146,0.0159,0.0154,0.0159,0.0137,0.0119,0.0107,0.005,0.0028,-0.0005,-0.0046,-0.0035,-0.0077,-0.0101,-0.0119,-0.008,-0.0129,-0.0129,-0.0156,-0.0158,-0.0159,-0.016,0,0,0.0125,0.0137,0.0142,0.018,0.0189,0.0226,0.0254,0.0273,0.0303,0.0255,0.029,0.0219,0.0171,0.0149,0.0085,0.0067,0.0055,0.0002,-0.0001,-0.0026,0.0007,-0.006,-0.0067,0.0032,0.0034,0.0034,-0.0051,0,0.0167,0.0219,0.0223,0.0313,0.0347,0.0347,0.0391,0.0407,0.0394,0.0415,0.0342,0.0344,0.0234,0.0227,0.0187,0.0101,0.0064,0.008,-0.0035,-0.0039,-0.0093,-0.0065,-0.0031,-0.0106,-0.0051,-0.0051,-0.0051,0,0.0207,0.0245,0.0326,0.0414,0.0434,0.0495,0.058,0.0612,0.0609,0.0596,0.0568,0.0506,0.0467,0.0375,0.025,0.0261,0.0142,0.0063,0.0057,-0.0024,-0.0103,-0.0133,-0.0108,-0.0051,-0.0051,-0.0051,-0.0051,0,0.026,0.0326,0.0405,0.0433,0.052,0.058,0.0632,0.066,0.0713,0.072,0.0759,0.067,0.0667,0.0514,0.0315,0.029,0.0174,0.0121,-0.0056,-0.0064,-0.0063,-0.0073,0.0037,0.0038,0.0038,0.0038,0.0038,0,0.0305,0.0371,0.0441,0.0497,0.0605,0.0661,0.0782,0.0796,0.0867,0.0966,0.0862,0.0916,0.0707,0.06,0.0384,0.0167,0.022,-0.003,-0.0077,-0.004,-0.0046,-0.0016,-0.0021,0.0035,0.0035,0.0036,0.0037,0,0.0351,0.0378,0.0472,0.0585,0.063,0.0711,0.0873,0.0958,0.1016,0.115,0.1171,0.1121,0.0988,0.0737,0.0506,0.0285,0.0066,-0.0033,0.0004,-0.0037,-0.0188,-0.0188,-0.0224,-0.0227,-0.023,-0.0232,-0.0233,0,0.0373,0.0425,0.0541,0.0596,0.0652,0.0789,0.0885,0.0996,0.1127,0.1283,0.1369,0.129,0.124,0.0848,0.0464,0.0082,0.0044,-0.0144,-0.0187,-0.0166,-0.0208,-0.0205,-0.0202,-0.0169,-0.017,-0.0171,-0.0171,0,0.0409,0.0441,0.0516,0.0643,0.0749,0.0899,0.1075,0.1221,0.1403,0.1526,0.1678,0.1649,0.1293,0.0922,0.0392,0.0134,-0.0085,-0.0175,-0.0126,-0.0114,-0.0123,-0.0162,-0.0158,-0.0179,-0.0178,-0.0177,-0.0177,-0.0177,0.0416,0.0456,0.0556,0.0688,0.0812,0.1033,0.1227,0.143,0.1663,0.1899,0.1858,0.1817,0.1405,0.0718,0.029,-0.0153,-0.0142,-0.0304,-0.0297,-0.029,-0.0275,-0.0287,-0.0373,-0.0373,-0.0374,-0.0374,-0.0374,0,0.0434,0.0497,0.0611,0.0802,0.1006,0.1067,0.1382,0.1593,0.1903,0.1979,0.2065,0.1659,0.1236,0.0776,0.0113,-0.0297,-0.0307,-0.0415,-0.0328,-0.0319,-0.0311,-0.0293,-0.0398,-0.04,-0.04,-0.0401,0,0,0.0439,0.054,0.0624,0.0947,0.1132,0.1446,0.1658,0.1882,0.2013,0.2095,0.2045,0.1896,0.1351,0.0865,0.033,-0.0026,-0.0081,-0.0102,-0.0043,0.0131,0.0144,-0.0213,-0.0171,0,0,0,0,0]}],[{"header":{"parameterUnit":"m.s-1","parameterCategory":2,"la1":30.2991,"la2":30.254,"lo1":-89.0895,"lo2":-89.0444,"dy":0.0017,"dx":0.0017,"nx":28,"ny":28,"refTime":"2025-07-07T21:00:00:Z","depth":"4","parameterNumber":2,"parameterNumberName":"U-component_of_CURRENTS"},"data":[0,0,0,0,0,0,0,0,0,0,0,0,0,0,0,0,0,0,0,0,0,0,0,0,0,0,0,0,0,0,0,0,0,0,0,0,0,0,0,0,0,0,0,0,0,0,0,0,0,0,0,0,0,0,0,0,0,0,0.1662,0.1663,0,0.1704,0.1704,0.1704,0.1742,0.1743,0.1743,0.1744,0.1844,0.1846,0.1848,0,0,0,0,0,0,0,0,0,0,0,0,0,0.1608,0.1609,0.1662,0.1663,0.1663,0.1703,0.1704,0.1704,0.1742,0.1743,0.1743,0.1744,0.1843,0.1846,0.1848,0,0,0,0,0,0,0,0,0,0,0,0,0,0.1637,0.1609,0.1662,0.1689,0.1691,0.1703,0.1704,0.1704,0.1742,0.1743,0.1744,0.1745,0.1842,0.1845,0.1848,0.1848,0,0,0.1858,0.1859,0,0,0,0,0,0,0,0,0.1635,0.1639,0.1684,0.1687,0.169,0.172,0.1722,0.1756,0.1742,0.1721,0.1744,0.1745,0.1809,0.1814,0.1816,0.1853,0.1857,0.1858,0.186,0.1861,0.1862,0,0,0,0,0,0,0,0.1633,0.1637,0.1676,0.1685,0.1688,0.1696,0.1701,0.1728,0.1758,0.1722,0.1726,0.1733,0.181,0.1813,0.1819,0.1859,0.1858,0.1861,0.1863,0.1864,0.1986,0.1987,0,0,0,0,0,0,0.1632,0.1635,0.1675,0.1678,0.1667,0.1696,0.1702,0.1708,0.1757,0.1765,0.1732,0.1735,0.1808,0.1816,0.1823,0.1926,0.1861,0.1864,0.1866,0.1985,0.1986,0.1988,0,0,0,0,0,0,0.163,0.1635,0.1674,0.1659,0.1665,0.1697,0.1703,0.1708,0.1754,0.1764,0.1773,0.1778,0.1809,0.1819,0.1882,0.1926,0.1866,0.1868,0.1983,0.1985,0.1987,0.2068,0,0,0,0,0,0,0.1628,0.1634,0.165,0.1659,0.1666,0.1685,0.1702,0.1709,0.1755,0.176,0.1805,0.1813,0.181,0.1877,0.1885,0.193,0.1871,0.1981,0.1984,0.1986,0.2063,0.2072,0.208,0,0,0,0,0,0.1626,0.1627,0.165,0.1656,0.1683,0.1685,0.1689,0.1713,0.1757,0.1763,0.1815,0.1814,0.1899,0.1881,0.189,0.1936,0.198,0.1983,0.1986,0.2059,0.207,0.208,0,0,0,0,0,0,0.1607,0.1632,0.1657,0.1667,0.1683,0.1692,0.1712,0.1741,0.1786,0.181,0.1837,0.1847,0.1912,0.1914,0.1894,0.1976,0.1937,0.1942,0.199,0.2,0.2008,0.2035,0.1873,0,0,0,0,0,0.1613,0.1625,0.1648,0.1658,0.1677,0.1711,0.1727,0.1742,0.1777,0.18,0.1853,0.1897,0.1923,0.1956,0.1971,0.203,0.2051,0.2062,0.2071,0.2078,0.2104,0.217,0.2187,0.1998,0.1998,0.1998,0,0,0.1609,0.1625,0.1634,0.1656,0.1684,0.1713,0.1724,0.1749,0.1792,0.1804,0.1909,0.1929,0.1941,0.1995,0.2026,0.2013,0.2141,0.2082,0.2088,0.2111,0.2175,0.2194,0.221,0.2,0.2,0.2,0,0,0.1574,0.163,0.1618,0.1652,0.1689,0.1724,0.1747,0.1797,0.1841,0.1907,0.1938,0.1998,0.2048,0.2079,0.2092,0.2161,0.2174,0.2165,0.2246,0.231,0.2327,0.2342,0.2387,0.2406,0.218,0.218,0.218,0,0.1576,0.156,0.1614,0.1627,0.1673,0.1744,0.1766,0.1819,0.1891,0.195,0.1945,0.2076,0.2084,0.2175,0.2192,0.2184,0.2219,0.2208,0.2323,0.2339,0.2353,0.2396,0.2415,0.2185,0.2184,0.2184,0.2183,0,0.1528,0.154,0.1548,0.1607,0.1674,0.1693,0.1796,0.1886,0.1966,0.2016,0.2133,0.216,0.2244,0.2248,0.2239,0.2356,0.2348,0.2318,0.2302,0.2377,0.2417,0.2436,0.2191,0.2189,0.2188,0.2187,0,0,0.1477,0.1498,0.1512,0.1546,0.1667,0.1719,0.1846,0.1958,0.2071,0.2145,0.2265,0.2321,0.2374,0.2394,0.2415,0.2473,0.2585,0.2452,0.2454,0.2506,0.2734,0.2543,0.2545,0.2588,0.2591,0.2594,0.272,0,0.1422,0.1399,0.1466,0.1539,0.1558,0.1727,0.1861,0.2004,0.2112,0.2255,0.2324,0.2438,0.2418,0.2486,0.2539,0.2593,0.2641,0.2554,0.2647,0.265,0.2478,0.2562,0.2606,0.2734,0.2739,0.2742,0.2744,0,0.135,0.1356,0.1365,0.1517,0.1564,0.1652,0.1923,0.2068,0.2286,0.2362,0.2495,0.2563,0.2713,0.2647,0.2805,0.2761,0.2756,0.2767,0.2772,0.2583,0.2494,0.2644,0.2778,0.2775,0.2773,0.277,0.2768,0,0.1258,0.131,0.1318,0.1366,0.1553,0.1654,0.183,0.2087,0.2251,0.2475,0.2571,0.2732,0.2844,0.2897,0.2935,0.2901,0.3055,0.3,0.2818,0.2804,0.2903,0.2886,0.3067,0.3067,0.3066,0.3066,0.3066,0,0.1152,0.1171,0.127,0.1291,0.1408,0.1629,0.1848,0.2015,0.2297,0.2474,0.2649,0.2745,0.2916,0.3012,0.3002,0.2983,0.3119,0.2857,0.2833,0.293,0.2915,0.2916,0.2897,0.3071,0.307,0.3069,0.3068,0,0.102,0.1049,0.1093,0.1275,0.1339,0.1472,0.1828,0.1969,0.2287,0.2512,0.2602,0.2828,0.2969,0.3077,0.3172,0.3066,0.3062,0.2992,0.3114,0.309,0.2754,0.2738,0.284,0.2835,0.283,0.2826,0.2823,0,0.0919,0.0918,0.1078,0.1103,0.1164,0.1397,0.1528,0.1888,0.2053,0.2509,0.2549,0.2809,0.2917,0.2939,0.3027,0.3049,0.2973,0.2964,0.2837,0.2769,0.2737,0.2727,0.2718,0.2816,0.2814,0.2813,0.2812,0,0.0787,0.0863,0.0918,0.097,0.104,0.1204,0.1431,0.1548,0.2006,0.2255,0.2481,0.2605,0.2736,0.2817,0.2868,0.2842,0.2987,0.2914,0.2922,0.2802,0.274,0.271,0.2706,0.2796,0.2798,0.28,0.2801,0,0.0713,0.0715,0.0793,0.0844,0.0925,0.1008,0.1168,0.1399,0.1651,0.2165,0.2193,0.2468,0.2698,0.2703,0.2723,0.2738,0.2678,0.2572,0.2597,0.2616,0.2478,0.2361,0.2305,0,0,0,0,0,0.0617,0.0605,0.0655,0.071,0.0806,0.0877,0.11,0.1295,0.1682,0.1773,0.2044,0.2166,0.2316,0.2414,0.238,0.2553,0.2634,0.2495,0.251,0.2707,0.2725,0.2579,0,0,0,0,0,0,0.0519,0.0547,0.0603,0.0622,0.0664,0.0765,0.0903,0.1138,0.1273,0.1655,0.1732,0.2013,0.2149,0.2324,0.2335,0.2367,0.2325,0.2665,0.2658,0.2696,0.2713,0.2728,0.2584,0,0,0,0,0]},{"header":{"parameterUnit":"m.s-1","parameterCategory":2,"la1":30.2991,"la2":30.254,"lo1":-89.0895,"lo2":-89.0444,"dy":0.0017,"dx":0.0017,"nx":28,"ny":28,"refTime":"2025-07-07T21:00:00:Z","depth":"4","parameterNumber":3,"parameterNumberName":"V-component_of_CURRENTS"},"data":[0,0,0,0,0,0,0,0,0,0,0,0,0,0,0,0,0,0,0,0,0,0,0,0,0,0,0,0,0,0,0,0,0,0,0,0,0,0,0,0,0,0,0,0,0,0,0,0,0,0,0,0,0,0,0,0,0,0,0.0007,0.0007,0,-0.0018,-0.0019,-0.0019,-0.0049,-0.0049,-0.005,-0.005,-0.0102,-0.0103,-0.0104,0,0,0,0,0,0,0,0,0,0,0,0,0,-0.0,0.0,0.0007,0.0007,0.0007,-0.0018,-0.0019,-0.0019,-0.0049,-0.0049,-0.005,-0.005,-0.0102,-0.0103,-0.0104,0,0,0,0,0,0,0,0,0,0,0,0,0,-0.0008,0.0,0.0008,-0.0011,-0.0013,-0.0018,-0.0019,-0.0019,-0.0048,-0.0049,-0.005,-0.0051,-0.0102,-0.0103,-0.0104,-0.0099,0,0,-0.0109,-0.0109,0,0,0,0,0,0,0,0,-0.0008,-0.0008,-0.0008,-0.001,-0.0012,-0.0031,-0.0041,-0.0047,-0.0048,-0.0035,-0.005,-0.0051,-0.0081,-0.0084,-0.0086,-0.0101,-0.0103,-0.0109,-0.011,-0.011,-0.0111,0,0,0,0,0,0,0,-0.0007,-0.0007,-0.0002,-0.0008,-0.0011,-0.0029,-0.0031,-0.0042,-0.0054,-0.0036,-0.0038,-0.0041,-0.0082,-0.0085,-0.0088,-0.0104,-0.0109,-0.011,-0.0111,-0.0112,-0.0127,-0.0127,0,0,0,0,0,0,-0.0002,-0.0006,-0.0002,-0.0003,-0.0012,-0.0028,-0.003,-0.0024,-0.0053,-0.0058,-0.0041,-0.0043,-0.0082,-0.0086,-0.009,-0.0084,-0.011,-0.0112,-0.0112,-0.0128,-0.0127,-0.0127,0,0,0,0,0,0,-0.0002,-0.0001,-0.0001,-0.0006,-0.0008,-0.0027,-0.002,-0.0024,-0.0032,-0.0056,-0.0062,-0.0045,-0.0083,-0.0088,-0.009,-0.0086,-0.0112,-0.0114,-0.0128,-0.0128,-0.0127,-0.0072,0,0,0,0,0,0,-0.0002,-0.0,0.0001,-0.0005,-0.0007,0.0008,-0.002,-0.0024,-0.0033,-0.0035,-0.0062,-0.0067,-0.0084,-0.0088,-0.0091,-0.0089,-0.0115,-0.0129,-0.0128,-0.0127,-0.0075,-0.007,-0.0066,0,0,0,0,0,-0.0002,0.0012,0.0002,0.0002,-0.0002,0.0009,0.0007,-0.001,-0.0032,-0.0023,-0.0042,-0.0067,-0.0086,-0.0088,-0.0092,-0.009,-0.0129,-0.0128,-0.0127,-0.0077,-0.0071,-0.0066,0,0,0,0,0,0,0.0011,0.001,-0.0001,0.0011,0.0012,0.0004,0.0008,-0.0009,-0.0017,-0.0021,-0.0054,-0.0059,-0.0062,-0.0081,-0.0083,-0.0093,-0.0115,-0.0115,-0.0075,-0.007,-0.0065,-0.0059,-0.0116,0,0,0,0,0,0.0014,0.0028,0.002,0.0034,0.0033,0.0018,0.0016,0.001,0.0002,-0.0003,-0.0025,-0.0047,-0.006,-0.0068,-0.008,-0.0081,-0.0124,-0.0086,-0.0081,-0.0077,-0.0076,-0.0137,-0.0138,-0.0124,-0.0124,-0.0124,0,0,0.0023,0.0026,0.0032,0.0038,0.0035,0.0055,0.0016,0.0027,0.0038,-0.0007,-0.0002,-0.0029,-0.0057,-0.0056,-0.006,-0.0072,-0.0103,-0.0076,-0.0072,-0.0073,-0.0136,-0.0138,-0.0139,-0.0123,-0.0123,-0.0123,0,0,0.0071,0.0051,0.0085,0.0086,0.009,0.0082,0.0086,0.0078,0.0065,0.0074,0.0036,0.0012,0.0,-0.0026,-0.004,-0.0019,-0.0076,-0.0027,-0.0001,-0.006,-0.0062,-0.0064,-0.0119,-0.0126,-0.0026,-0.0026,-0.0026,0,0.0081,0.0125,0.0097,0.0128,0.0134,0.0098,0.0135,0.0121,0.0112,0.0098,0.0087,0.004,0.0015,-0.0006,0.0001,-0.001,-0.0053,-0.0017,-0.0055,-0.0058,-0.0061,-0.0117,-0.0126,-0.0023,-0.0024,-0.0024,-0.0024,0,0.0152,0.0186,0.0205,0.0232,0.0229,0.0259,0.0232,0.0223,0.0199,0.0177,0.0149,0.011,0.0077,0.0061,0.0041,0.0003,-0.0023,-0.0041,-0.0069,-0.006,-0.0119,-0.0129,-0.0019,-0.002,-0.0021,-0.0022,0,0,0.0187,0.0249,0.0256,0.0287,0.0288,0.0296,0.03,0.0292,0.0283,0.025,0.0234,0.0194,0.0147,0.0127,0.0081,0.0027,-0.0033,-0.0013,-0.0017,-0.0067,-0.0167,-0.0156,-0.0167,-0.0063,-0.0064,-0.0066,-0.0198,0,0.026,0.036,0.0353,0.0422,0.0467,0.0417,0.0425,0.0396,0.0358,0.0328,0.0253,0.0232,0.0178,0.0164,0.0097,0.0003,-0.0058,0.0005,-0.0168,-0.0173,-0.0165,-0.0178,-0.007,-0.0206,-0.0209,-0.021,-0.0212,0,0.0329,0.0393,0.0497,0.0531,0.0538,0.056,0.0537,0.0535,0.0465,0.0433,0.0369,0.0307,0.0225,0.0184,0.0011,0.0052,-0.0051,-0.0131,-0.0139,-0.0155,-0.0182,-0.0219,-0.0232,-0.023,-0.0229,-0.0227,-0.0226,0,0.0389,0.0473,0.0568,0.0583,0.0621,0.0633,0.0627,0.0574,0.0572,0.0495,0.0487,0.0361,0.0319,0.0166,-0.0001,0.0001,-0.0199,-0.0216,-0.0308,-0.0309,-0.0304,-0.03,-0.0343,-0.0343,-0.0343,-0.0342,-0.0342,0,0.0472,0.0534,0.0609,0.0661,0.0739,0.0707,0.0751,0.0713,0.0671,0.067,0.0551,0.0517,0.0313,0.0174,0.0009,-0.0182,-0.0197,-0.0309,-0.0344,-0.0277,-0.0268,-0.0312,-0.0306,-0.0347,-0.0346,-0.0345,-0.0344,0,0.053,0.0593,0.0687,0.0755,0.0788,0.0824,0.0858,0.0864,0.0818,0.0811,0.0798,0.0635,0.0451,0.0238,-0.0016,-0.0145,-0.034,-0.0405,-0.0316,-0.0343,-0.0416,-0.0406,-0.052,-0.0521,-0.0522,-0.0522,-0.0523,0,0.058,0.065,0.0764,0.0827,0.0871,0.0937,0.0985,0.0956,0.0953,0.0878,0.0868,0.0706,0.058,0.0231,-0.0009,-0.0326,-0.0366,-0.0467,-0.0446,-0.0412,-0.0435,-0.0424,-0.0414,-0.0524,-0.0524,-0.0524,-0.0524,0,0.0649,0.0684,0.0757,0.09,0.0978,0.1065,0.1112,0.113,0.1079,0.106,0.0936,0.0746,0.0534,0.0243,0.0002,-0.023,-0.0403,-0.0475,-0.0475,-0.0456,-0.0418,-0.0438,-0.0427,-0.0526,-0.0526,-0.0526,-0.0526,0,0.0673,0.0722,0.0816,0.0931,0.1051,0.1135,0.1163,0.1153,0.1152,0.106,0.1019,0.0777,0.0634,0.029,0.0057,-0.0159,-0.0214,-0.0279,-0.0291,-0.0291,-0.0185,-0.0101,-0.0145,0,0,0,0,0,0.0678,0.0731,0.0839,0.0954,0.1072,0.1143,0.1219,0.1219,0.1202,0.1136,0.1076,0.0875,0.0523,0.0349,0.0138,0.0034,-0.0258,-0.0222,-0.0341,-0.0539,-0.0536,-0.045,0,0,0,0,0,0,0.0682,0.0766,0.0823,0.0955,0.1043,0.1156,0.1215,0.1203,0.1151,0.111,0.0923,0.0831,0.0484,0.0655,0.0139,0.0068,-0.0035,-0.0388,-0.0393,-0.054,-0.0538,-0.0536,-0.0446,0,0,0,0,0]}]]